Monarch Pass, CO

4:05 AM MDT on June 25, 2017 (GMT -0600)
Monarch Pass

Weather History for KMYP - April, 2014

Change the Weather History Date:

Monday, April 21, 2014

  Actual Average (KALS) Record (KALS)
Temperature  
Mean Temperature 37 °F -  
Max Temperature 44 °F 61 °F 79 °F (1989)
Min Temperature 30 °F 24 °F 10 °F (1907)
Degree Days  
Heating Degree Days 28    
Moisture  
Dew Point 21 °F    
Average Humidity 55    
Maximum Humidity 86    
Minimum Humidity 29    
Precipitation  
Precipitation 0.00 in - - ()
Sea Level Pressure  
Sea Level Pressure 30.56 in    
Wind  
Wind Speed 10 mph (West)    
Max Wind Speed 30 mph    
Max Gust Speed 37 mph    
Visibility 10 miles    
Events      
Averages and records for this station are not official NWS values.
T = Trace of Precipitation, MM = Missing Value Source: NWS Daily Summary

Daily Weather History Graph

Daily Weather History Graph

Search for Another Location

Airport or City:

Trip Planner

Search our weather history database for the weather conditions in past years. The results will help you decide how hot, cold, wet, or windy it might be!

Date:

Astronomy

Apr. 21, 2014 Rise Set
Actual Time 6:20 AM MDT 7:46 PM MDT
Civil Twilight 5:52 AM MDT 8:14 PM MDT
Nautical Twilight 5:19 AM MDT 8:47 PM MDT
Astronomical Twilight 4:44 AM MDT 9:23 PM MDT
Moon 1:17 AM MDT (4/21) 11:51 AM MDT (4/21)
Length of Visible Light 14h 21m
Length of Day
13h 26m
Waning Gibbous, 57% of the Moon is Illuminated
Apr 21
Waning Gibbous
Apr 22
Last Quarter
Apr 29
New
May 6
First Quarter
May 14
Full

Hourly Weather History & Observations

Time (MDT) Temp. Windchill Dew Point Humidity Pressure Visibility Wind Dir Wind Speed Gust Speed Precip Events Conditions
12:15 AM 32.0 °F 24.8 °F 26.6 °F 80% 30.54 in 10.0 mi SW 8.1 mph - N/A   Clear
12:34 AM 32.0 °F 24.8 °F 26.6 °F 80% 30.54 in 10.0 mi West 8.1 mph - N/A   Clear
12:54 AM 32.0 °F 27.5 °F 26.6 °F 80% 30.54 in 10.0 mi SW 4.6 mph - N/A   Clear
1:15 AM 32.0 °F 24.2 °F 26.6 °F 80% 30.54 in 10.0 mi SW 9.2 mph - N/A   Clear
1:32 AM 30.2 °F 24.3 °F 26.6 °F 86% 30.54 in 10.0 mi WSW 5.8 mph - N/A   Clear
1:53 AM 32.0 °F - 26.6 °F 80% 30.54 in 10.0 mi Calm Calm - N/A   Clear
2:16 AM 32.0 °F - 24.8 °F 75% 30.54 in 10.0 mi Calm Calm - N/A   Scattered Clouds
2:36 AM 32.0 °F 26.4 °F 24.8 °F 75% 30.54 in 10.0 mi NE 5.8 mph - N/A   Mostly Cloudy
2:52 AM 32.0 °F - 24.8 °F 75% 30.54 in 10.0 mi Calm Calm - N/A   Scattered Clouds
3:16 AM 32.0 °F 25.6 °F 23.0 °F 69% 30.54 in 10.0 mi East 6.9 mph - N/A   Scattered Clouds
3:35 AM 32.0 °F 24.8 °F 23.0 °F 69% 30.54 in 10.0 mi ENE 8.1 mph - N/A   Scattered Clouds
3:56 AM 32.0 °F - 24.8 °F 75% 30.54 in 10.0 mi Calm Calm - N/A   Clear
4:04 AM 32.0 °F 28.7 °F 24.8 °F 75% 30.54 in 10.0 mi East 3.5 mph - N/A   Clear
4:35 AM 32.0 °F 24.8 °F 21.2 °F 64% 30.54 in 10.0 mi East 8.1 mph - N/A   Clear
4:56 AM 32.0 °F 25.6 °F 19.4 °F 60% 30.54 in 10.0 mi East 6.9 mph - N/A   Scattered Clouds
5:16 AM 30.2 °F 25.4 °F 19.4 °F 64% 30.54 in 10.0 mi SSE 4.6 mph - N/A   Scattered Clouds
5:35 AM 32.0 °F 23.6 °F 19.4 °F 60% 30.54 in 10.0 mi East 10.4 mph - N/A   Clear
5:54 AM 32.0 °F 25.6 °F 19.4 °F 60% 30.55 in 10.0 mi ENE 6.9 mph - N/A   Clear
6:05 AM 32.0 °F 24.8 °F 19.4 °F 60% 30.55 in 10.0 mi East 8.1 mph - N/A   Clear
6:28 AM 32.0 °F 25.6 °F 21.2 °F 64% 30.56 in 10.0 mi East 6.9 mph - N/A   Clear
6:51 AM 32.0 °F 26.4 °F 21.2 °F 64% 30.56 in 10.0 mi East 5.8 mph - N/A   Clear
7:14 AM 32.0 °F 24.8 °F 21.2 °F 64% 30.56 in 10.0 mi East 8.1 mph - N/A   Clear
7:35 AM 32.0 °F 24.8 °F 21.2 °F 64% 30.57 in 10.0 mi ENE 8.1 mph - N/A   Clear
7:47 AM 32.0 °F 24.2 °F 21.2 °F 64% 30.57 in 10.0 mi East 9.2 mph - N/A   Clear
8:11 AM 32.0 °F 23.6 °F 21.2 °F 64% 30.57 in 10.0 mi East 10.4 mph - N/A   Clear
8:36 AM 32.0 °F 26.4 °F 21.2 °F 64% 30.58 in 10.0 mi East 5.8 mph - N/A   Clear
8:54 AM 33.8 °F - 21.2 °F 60% 30.58 in 10.0 mi Calm Calm - N/A   Clear
9:16 AM 33.8 °F 29.6 °F 26.6 °F 75% 30.59 in 10.0 mi West 4.6 mph - N/A   Scattered Clouds
9:34 AM 33.8 °F 30.8 °F 26.6 °F 75% 30.59 in 10.0 mi WNW 3.5 mph - N/A   Scattered Clouds
9:53 AM 35.6 °F 30.7 °F 26.6 °F 70% 30.59 in 10.0 mi West 5.8 mph - N/A   Mostly Cloudy
10:13 AM 35.6 °F 28.0 °F 26.6 °F 70% 30.59 in 10.0 mi SSW 10.4 mph - N/A   Mostly Cloudy
10:35 AM 39.2 °F 31.6 °F 26.6 °F 61% 30.59 in 10.0 mi SW 12.7 mph 17.3 mph N/A   Mostly Cloudy
10:56 AM 35.6 °F 25.5 °F 26.6 °F 70% 30.59 in 10.0 mi WSW 17.3 mph - N/A   Scattered Clouds
11:11 AM 37.4 °F 28.5 °F 26.6 °F 65% 30.59 in 10.0 mi WSW 15.0 mph - N/A   Scattered Clouds
11:35 AM 39.2 °F 32.5 °F 23.0 °F 52% 30.59 in 10.0 mi WSW 10.4 mph - N/A   Clear
11:56 AM 39.2 °F 31.6 °F 24.8 °F 56% 30.59 in 10.0 mi West 12.7 mph 20.7 mph N/A   Clear
12:14 PM 41.0 °F 33.5 °F 24.8 °F 53% 30.59 in 10.0 mi West 13.8 mph 18.4 mph N/A   Scattered Clouds
12:36 PM 42.8 °F 35.4 °F 24.8 °F 49% 30.59 in 10.0 mi WSW 15.0 mph - N/A   Scattered Clouds
12:56 PM 41.0 °F 32.5 °F 21.2 °F 45% 30.59 in 10.0 mi West 17.3 mph 23.0 mph N/A   Scattered Clouds
1:10 PM 41.0 °F 32.2 °F 21.2 °F 45% 30.59 in 10.0 mi WSW 18.4 mph 26.5 mph N/A   Clear
1:32 PM 41.0 °F 31.9 °F 17.6 °F 39% 30.59 in 10.0 mi West 19.6 mph 27.6 mph N/A   Clear
1:56 PM 42.8 °F 33.8 °F 17.6 °F 36% 30.58 in 10.0 mi West 21.9 mph 31.1 mph N/A   Clear
2:13 PM 42.8 °F 33.1 °F 17.6 °F 36% 30.58 in 10.0 mi West 25.3 mph 32.2 mph N/A   Clear
2:36 PM 42.8 °F 33.8 °F 19.4 °F 39% 30.57 in 10.0 mi West 21.9 mph 34.5 mph N/A   Clear
2:49 PM 42.8 °F 32.7 °F 17.6 °F 36% 30.58 in 10.0 mi West 27.6 mph 32.2 mph N/A   Clear
3:16 PM 44.6 °F 34.9 °F 17.6 °F 34% 30.56 in 10.0 mi West 28.8 mph 34.5 mph N/A   Clear
3:22 PM 42.8 °F 33.1 °F 15.8 °F 34% 30.56 in 10.0 mi West 25.3 mph 36.8 mph N/A   Clear
3:54 PM 44.6 °F 35.9 °F 15.8 °F 31% 30.55 in 10.0 mi West 23.0 mph 29.9 mph N/A   Clear
4:15 PM 44.6 °F 35.1 °F 17.6 °F 34% 30.55 in 10.0 mi West 27.6 mph 32.2 mph N/A   Scattered Clouds
4:35 PM 44.6 °F 35.9 °F 19.4 °F 37% 30.55 in 10.0 mi WNW 23.0 mph 28.8 mph N/A   Scattered Clouds
4:52 PM 44.6 °F 35.5 °F 17.6 °F 34% 30.55 in 10.0 mi WSW 25.3 mph 32.2 mph N/A   Scattered Clouds
5:15 PM 44.6 °F 35.7 °F 15.8 °F 31% 30.55 in 10.0 mi West 24.2 mph 36.8 mph N/A   Scattered Clouds
5:33 PM 44.6 °F 34.9 °F 14.0 °F 29% 30.55 in 10.0 mi West 28.8 mph 34.5 mph N/A   Clear
5:56 PM 44.6 °F 34.7 °F 15.8 °F 31% 30.55 in 10.0 mi West 29.9 mph 33.4 mph N/A   Scattered Clouds
6:15 PM 42.8 °F 33.1 °F 14.0 °F 31% 30.55 in 10.0 mi West 25.3 mph 36.8 mph N/A   Scattered Clouds
6:34 PM 42.8 °F 34.5 °F 15.8 °F 34% 30.55 in 10.0 mi West 18.4 mph 27.6 mph N/A   Clear
6:55 PM 42.8 °F 35.1 °F 15.8 °F 34% 30.55 in 10.0 mi West 16.1 mph 26.5 mph N/A   Clear
7:14 PM 41.0 °F 31.9 °F 15.8 °F 36% 30.55 in 10.0 mi West 19.6 mph 27.6 mph N/A   Clear
7:25 PM 39.2 °F 30.5 °F 15.8 °F 39% 30.54 in 10.0 mi West 16.1 mph 26.5 mph N/A   Clear
7:56 PM 37.4 °F 28.5 °F 17.6 °F 45% 30.55 in 10.0 mi WNW 15.0 mph - N/A   Clear
8:14 PM 37.4 °F 28.9 °F 17.6 °F 45% 30.55 in 10.0 mi WNW 13.8 mph - N/A   Clear
8:35 PM 35.6 °F 27.1 °F 17.6 °F 48% 30.55 in 10.0 mi WNW 12.7 mph - N/A   Clear
8:54 PM 35.6 °F 26.6 °F 17.6 °F 48% 30.55 in 10.0 mi WNW 13.8 mph - N/A   Clear
9:10 PM 35.6 °F 27.1 °F 17.6 °F 48% 30.56 in 10.0 mi WNW 12.7 mph - N/A   Clear
9:29 PM 35.6 °F 28.0 °F 17.6 °F 48% 30.56 in 10.0 mi WNW 10.4 mph - N/A   Clear
9:56 PM 35.6 °F 28.0 °F 17.6 °F 48% 30.56 in 10.0 mi WNW 10.4 mph - N/A   Clear
10:07 PM 35.6 °F 28.6 °F 17.6 °F 48% 30.56 in 10.0 mi WNW 9.2 mph - N/A   Clear
10:31 PM 35.6 °F 27.5 °F 19.4 °F 52% 30.56 in 10.0 mi WNW 11.5 mph - N/A   Clear
10:49 PM 35.6 °F 27.1 °F 19.4 °F 52% 30.56 in 10.0 mi WNW 12.7 mph - N/A   Clear
11:11 PM 35.6 °F 27.5 °F 19.4 °F 52% 30.55 in 10.0 mi West 11.5 mph - N/A   Clear
11:24 PM 35.6 °F 27.1 °F 19.4 °F 52% 30.55 in 10.0 mi West 12.7 mph - N/A   Clear
11:53 PM 35.6 °F 27.5 °F 19.4 °F 52% 30.55 in 10.0 mi WSW 11.5 mph - N/A   Scattered Clouds